Content
SEND FEEDBACK

Daily
Averages
Monthly
Summary
Canada

QUEBEC CITY, QUEBEC


Home > North America > Canada > Quebec
Elevation: 239 feet     Latitude: 46 48N     Longitude: 071 23W

WEATHER
 
SELECT A DAY
Number of Records: 198,095;   Date Range: 6/30/96 - 12/19/14
 
SHARE

PRINT THIS DATA

[ ← Previous Day ]
WEATHER ALMANAC - MARCH 29, 2013
[ Next Day → ]
[ °C ]   °F
Weather ElementAverageHighLow
Temperature39.9 °F44.6 °F (3:00 pm)33 °F (11:00 pm)
Dewpoint30.5 °F33.8 °F (1:00 am)25 °F (8:00 am)
Humidity67.7 %87 % (1:00 am)42 % (8:00 am)
Barometer29.98 in30.02 in (9:00 am)29.92 in (5:00 pm)
Wind Speed9.6 mph21.9 mph (1:00 pm)
Wind Gust23 mph (6:00 pm)
Weather ElementAverage
Visibility22.8 mi
Wind DirectionSW (230.6 °)

Weather ElementTotal
Precipitation---
Heating Degree Days26.2 (Base 65)
Averaged from 31 records on March 29, 2013
WEATHER CONDITIONS BREAKOUT
WIND DIRECTION BREAKOUT
WEATHER BY HOUR - MARCH 29, 2013
[ °C ]   °F
Local TimeTemperatureDewpointHumidityBarometerVisibilityWind DirectionWind SpeedGust SpeedPrecipitationEventsConditions
1:00 AM37.4 °F33.8 °F87 %29.98 in15.0 miSW (230°)4.6 mphMostly Cloudy
2:00 AM36.0 °F33.0 °F86 %29.97 inWSW (250°)6.9 mph
2:00 AM37.4 °F33.8 °F87 %29.98 in15.0 miWSW (240°)9.2 mphMostly Cloudy
3:00 AM35.6 °F32.0 °F87 %29.98 in15.0 miWSW (240°)9.2 mphMostly Cloudy
4:00 AM37.4 °F32.0 °F81 %29.98 in15.0 miNW (310°)6.9 mphOvercast
5:00 AM36.0 °F33.0 °F83 %29.97 inWest (270°)4.6 mph
5:00 AM37.4 °F32.0 °F81 %29.98 in15.0 miWNW (290°)5.8 mphOvercast
6:00 AM39.2 °F30.2 °F70 %29.99 in15.0 miNW (320°)4.6 mphOvercast
7:00 AM37.4 °F28.4 °F70 %30.00 in15.0 miNW (310°)3.5 mphMostly Cloudy
8:00 AM40.0 °F25.0 °F42 %30.00 inNorth2.3 mph
8:00 AM39.2 °F28.4 °F65 %30.01 in30.0 miNNW (330°)3.5 mphMostly Cloudy
9:00 AM39.2 °F30.2 °F70 %30.02 in30.0 miWSW (240°)4.6 mphMostly Cloudy
10:00 AM41.0 °F28.4 °F61 %30.01 in30.0 miWSW (240°)4.6 mphMostly Cloudy
11:00 AM42.0 °F31.0 °F53 %29.99 inSSW (210°)5.8 mph
11:00 AM41.0 °F28.4 °F61 %30.01 in30.0 miSouth (190°)11.5 mphMostly Cloudy
12:00 PM42.8 °F30.2 °F61 %30.00 in30.0 miSW (230°)13.8 mphScattered Clouds
1:00 PM42.8 °F30.2 °F61 %29.98 in30.0 miSW (220°)21.9 mphScattered Clouds
2:00 PM44.0 °F30.0 °F46 %29.95 inSW (230°)10.4 mph
2:00 PM42.8 °F30.2 °F61 %29.97 in30.0 miSW (230°)20.7 mphPartly Cloudy
3:00 PM44.6 °F28.4 °F53 %29.95 in30.0 miSW (220°)18.4 mphPartly Cloudy
4:00 PM44.6 °F30.2 °F57 %29.94 in30.0 miSW (220°)21.9 mphPartly Cloudy
5:00 PM44.0 °F31.0 °F49 %29.92 inSW (230°)11.5 mph
5:00 PM44.6 °F30.2 °F57 %29.94 in30.0 miSW (230°)19.6 mphMostly Cloudy
6:00 PM42.8 °F30.2 °F61 %29.94 in30.0 miWSW (240°)17.3 mph23.0 mphMostly Cloudy
7:00 PM41.0 °F30.2 °F65 %29.96 in30.0 miWSW (250°)12.7 mphMostly Cloudy
8:00 PM40.0 °F33.0 °F67 %29.96 inWSW (250°)12.7 mph
8:00 PM39.2 °F32.0 °F75 %29.98 in15.0 miWest (260°)16.1 mphMostly Cloudy
9:00 PM39.2 °F32.0 °F75 %30.00 in15.0 miSW (230°)9.2 mphOvercast
10:00 PM39.2 °F30.2 °F70 %30.01 in15.0 miWSW (240°)3.5 mphPartly Cloudy
11:00 PM33.0 °F29.0 °F81 %30.01 inSSW (200°)1.2 mph
11:00 PM35.6 °F28.4 °F75 %30.02 in15.0 miCalmPartly Cloudy
Hourly data recorded from CYQB, located miles away from Quebec City, Quebec







STORIES FROM OUR PARTNERS